sat.trackr.live / text

‹ back to catalog

KUIPER-00415

NORAD 68930 · 2026-098M

PAYLOAD ACTIVE UNKNOWN

§ Identity

Operator
Country
US
Launch date
2026-04-30
Launch site
FRGUI
Launch vehicle
Mass (kg)
RCS (m²)

External: N2YO · Heavens-Above · Gunter

§ Orbital elements

Epoch: 2026-09-19T22:53:42.798048Z

Period
97.30 min
Inclination
51.9037°
Eccentricity
0.0000487
Mean motion
14.79927756 rev/d
Perigee alt
629.2 km
Apogee alt
629.9 km
Semi-major
7,007.7 km
B*
1.9950e-5
RAAN
354.1124°
Arg perigee
99.8108°
Mean anomaly
260.2910°
Rev number
2,158

§ Raw data

KUIPER-004151 68930U 26098M   26262.95396757 -.00000069  00000+0  19950-4 0  99932 68930  51.9037 354.1124 0000487  99.8108 260.2910 14.79927756 21580

JSON: /api/v1/satellites/68930 · /tle

For live sub-satellite position, see the globe view (requires WebGL).

§ Visibility from observer

Set your observer location to see the next 7 days of passes ≥ 10°. The values pass through the URL so the page stays shareable.

No JS? Fill the form by hand. The geolocation button needs JavaScript.